Weather Roundup
Issued by NWS Chicago, IL

Home | Current Version | Previous Version | Graphics & Text | Print | Product List | Glossary On
Versions: 1 2 3 4 5 6 7 8 9 10 11 12 13 14 15 16 17 18 19 20 21 22 23 24 25 26 27 28 29 30 31 32 33 34 35 36 37 38 39 40 41 42 43 44 45 46 47 48 49 50
000
NZUS59 KLOT 031902
HRRLOT

CHICAGO AREA WEATHER ROUNDUP
NATIONAL WEATHER SERVICE CHICAGO/ROMEOVILLE IL
200 PM CDT MON AUG 03 2015

NOTE: "FAIR" INDICATES FEW OR NO CLOUDS BELOW 12,000 FEET WITH NO
SIGNIFICANT WEATHER AND/OR OBSTRUCTIONS TO VISIBILITY.

* THESE STATIONS ARE NOT UNDER NWS QUALITY CONTROL. THEY ALSO MAY NOT
  REPORT WEATHER SUCH AS PRECIPITATION OR FOG.

ILZ005-006-012>014-019>023-032000-
NORTHEAST ILLINOIS

CITY           SKY/WX    TMP DP  RH WIND       PRES   REMARKS
OHARE          MOSUNNY   80  48  32 NW13      29.86S
MIDWAY         MOSUNNY   83  49  30 NW15      29.85F HX  81
AURORA         SUNNY     80  51  36 NW10      29.89S HX  80
JOLIET*        SUNNY     82  56  41 NW8       29.87F HX  81
WAUKEGAN       SUNNY     78  49  35 W10       29.85S
DUPAGE AIRPORT SUNNY     79  48  33 W12G18    29.87F
WHEELING       SUNNY     81  45  28 W13       29.87  HX  80
LEWIS AIRPORT* SUNNY     80  55  43 NW13      29.87F HX  80
NORTHERLY IS     N/A     79  45  29 W10         N/A
$$

WIZ051-052-058>065-066-070>072-032000-
SOUTHEAST WISCONSIN

CITY           SKY/WX    TMP DP  RH WIND       PRES   REMARKS
MILWAUKEE      MOSUNNY   79  45  29 W17G29    29.84S
KENOSHA*       SUNNY     78  51  38 W13G24    29.85F
RACINE*        SUNNY     79  47  32 NW16G22   29.86S
WAUKESHA       MOSUNNY   77  45  31 NW18G29   29.86F
$$

INZ001>003-010>013-019-020-032000-
NORTHWEST INDIANA

CITY           SKY/WX    TMP DP  RH WIND       PRES   REMARKS
GARY*          MOSUNNY   79  57  47 NE9       29.87S HX  80
MICHIGAN CITY* NOT AVBL
RENSSELAER*    NOT AVBL
$$

LMZ740>746-032000-
SOUTHERN LAKE MICHIGAN

STATION/POSITION TIME  SKY/WX   TEMP WIND        PRES    VSBY
                                AIR  DIR/SP/G
                 (UTC)          (F)  (DEG/KT/KT) (MB)    (MI)
HARRISON CRIB    1800            73   10/  8/ 10   N/A
BURNHAM HARBOR   1800            79  300/  9/ 14   N/A
CALUMET HARBOR   1800            75   20/  9/ 13   N/A
BURNS HARBOR     1800            72   30/  7/  9 1011.9S
MICHIGAN CITY    1800            73  330/  8/  9   N/A
$$

ABBREVIATIONS USED IN REMARKS
   TC - TEMPERATURE IN CELSIUS
  WCI - WIND CHILL INDEX
   HX - HEAT INDEX
  VSB - VISIBILITY
$$



USA.gov is the U.S. government's official web portal to all federal, state and local government web resources and services.